When you browse on this site, cookies collect data to enhance your experience and personalize the content and advertising you see.
Visit our Privacy Policy to learn more. By continuing to use the site, you agree to this use of cookies and data.
  • In Austria
  • List of Countries
  • For 7 days
  • Water Temperature
  • Weather Map
  • News
  • Weather Widgets
  • user-avatar
    Login

    Hourly Weather Ondjiwa

    Today, 29 May, Friday

    Time Temperature Precipitation Wind Pressure Humidity
    00:00 +17°C° 0 mm 2 mps 668 mmHg 38%
    01:00 +17°C° 0 mm 3 mps 668 mmHg 39%
    02:00 +16°C° 0 mm 3 mps 668 mmHg 39%
    03:00 +16°C° 0 mm 2 mps 668 mmHg 40%
    04:00 +15°C° 0 mm 2 mps 668 mmHg 41%
    05:00 +15°C° 0 mm 2 mps 668 mmHg 42%
    06:00 +15°C° 0 mm 2 mps 668 mmHg 44%
    07:00 +14°C° 0 mm 2 mps 669 mmHg 46%
    08:00 +18°C° 0 mm 2 mps 670 mmHg 38%
    09:00 +21°C° 0 mm 2 mps 671 mmHg 31%
    10:00 +26°C° 0 mm 3 mps 671 mmHg 24%
    11:00 +27°C° 0 mm 3 mps 671 mmHg 22%
    12:00 +29°C° 0 mm 2 mps 671 mmHg 20%
    13:00 +31°C° 0 mm 2 mps 670 mmHg 17%
    14:00 +31°C° 0 mm 2 mps 670 mmHg 17%
    15:00 +31°C° 0 mm 1 mps 669 mmHg 16%
    16:00 +31°C° 0 mm 1 mps 669 mmHg 15%
    17:00 +28°C° 0 mm 1 mps 669 mmHg 19%
    18:00 +25°C° 0 mm 1 mps 668 mmHg 23%
    19:00 +22°C° 0 mm 1 mps 668 mmHg 26%
    20:00 +21°C° 0 mm 1 mps 668 mmHg 27%
    21:00 +19°C° 0 mm 2 mps 668 mmHg 28%
    22:00 +18°C° 0 mm 2 mps 668 mmHg 29%
    23:00 +18°C° 0 mm 2 mps 668 mmHg 29%

    Tomorrow, 30 May, Saturday

    Time Temperature Precipitation Wind Pressure Humidity
    00:00 +17°C° 0 mm 2 mps 668 mmHg 29%
    01:00 +16°C° 0 mm 2 mps 667 mmHg 29%
    02:00 +15°C° 0 mm 2 mps 667 mmHg 30%
    03:00 +15°C° 0 mm 2 mps 667 mmHg 31%
    04:00 +14°C° 0 mm 2 mps 667 mmHg 31%
    05:00 +13°C° 0 mm 2 mps 668 mmHg 31%
    06:00 +13°C° 0 mm 2 mps 668 mmHg 32%
    07:00 +13°C° 0 mm 2 mps 668 mmHg 32%
    08:00 +17°C° 0 mm 3 mps 669 mmHg 26%
    09:00 +21°C° 0 mm 3 mps 671 mmHg 21%
    10:00 +27°C° 0 mm 4 mps 672 mmHg 15%
    11:00 +28°C° 0 mm 3 mps 671 mmHg 13%
    12:00 +30°C° 0 mm 3 mps 671 mmHg 12%
    13:00 +33°C° 0 mm 3 mps 670 mmHg 10%
    14:00 +33°C° 0 mm 3 mps 670 mmHg 10%
    15:00 +31°C° 0 mm 3 mps 670 mmHg 10%
    16:00 +31°C° 0 mm 2 mps 669 mmHg 10%
    17:00 +28°C° 0 mm 2 mps 669 mmHg 13%
    18:00 +25°C° 0 mm 2 mps 669 mmHg 16%
    19:00 +21°C° 0 mm 2 mps 668 mmHg 18%
    20:00 +20°C° 0 mm 2 mps 668 mmHg 20%
    21:00 +19°C° 0 mm 2 mps 669 mmHg 21%
    22:00 +18°C° 0 mm 2 mps 669 mmHg 22%
    23:00 +17°C° 0 mm 2 mps 669 mmHg 24%

    Day after tomorrow, 31 May, Sunday

    Time Temperature Precipitation Wind Pressure Humidity
    00:00 +17°C° 0 mm 3 mps 669 mmHg 25%
    01:00 +16°C° 0 mm 3 mps 669 mmHg 27%
    02:00 +14°C° 0 mm 3 mps 668 mmHg 29%
    03:00 +14°C° 0 mm 3 mps 668 mmHg 30%
    04:00 +13°C° 0 mm 3 mps 668 mmHg 32%
    05:00 +13°C° 0 mm 3 mps 669 mmHg 34%
    06:00 +14°C° 0 mm 2 mps 669 mmHg 37%
    07:00 +14°C° 0 mm 2 mps 670 mmHg 39%
    08:00 +18°C° 0 mm 3 mps 670 mmHg 34%
    09:00 +22°C° 0 mm 3 mps 671 mmHg 28%
    10:00 +27°C° 0 mm 4 mps 672 mmHg 23%
    11:00 +28°C° 0 mm 4 mps 672 mmHg 21%
    12:00 +30°C° 0 mm 4 mps 672 mmHg 19%
    13:00 +33°C° 0 mm 4 mps 671 mmHg 16%
    14:00 +33°C° 0 mm 4 mps 671 mmHg 17%
    15:00 +31°C° 0 mm 3 mps 670 mmHg 17%
    16:00 +31°C° 0 mm 3 mps 670 mmHg 17%
    17:00 +28°C° 0 mm 3 mps 670 mmHg 21%
    18:00 +25°C° 0 mm 2 mps 670 mmHg 25%
    19:00 +21°C° 0 mm 2 mps 669 mmHg 29%
    20:00 +21°C° 0 mm 2 mps 669 mmHg 31%
    21:00 +20°C° 0 mm 2 mps 670 mmHg 32%
    22:00 +19°C° 0 mm 2 mps 670 mmHg 34%
    23:00 +18°C° 0 mm 3 mps 670 mmHg 36%

    1 June, Monday

    Time Temperature Precipitation Wind Pressure Humidity
    00:00 +18°C° 0 mm 3 mps 670 mmHg 38%
    01:00 +17°C° 0 mm 3 mps 670 mmHg 40%
    02:00 +17°C° 0 mm 3 mps 670 mmHg 43%
    03:00 +16°C° 0 mm 3 mps 669 mmHg 45%
    04:00 +14°C° 0 mm 3 mps 669 mmHg 47%
    05:00 +14°C° 0 mm 3 mps 670 mmHg 48%
    06:00 +14°C° 0 mm 3 mps 670 mmHg 49%
    07:00 +14°C° 0 mm 3 mps 670 mmHg 50%
    08:00 +19°C° 0 mm 3 mps 671 mmHg 42%
    09:00 +22°C° 0 mm 4 mps 672 mmHg 34%
    10:00 +27°C° 0 mm 5 mps 673 mmHg 26%
    11:00 +29°C° 0 mm 5 mps 672 mmHg 24%
    12:00 +30°C° 0 mm 4 mps 671 mmHg 21%
    13:00 +33°C° 0 mm 4 mps 671 mmHg 19%
    14:00 +33°C° 0 mm 4 mps 670 mmHg 20%
    15:00 +32°C° 0 mm 4 mps 670 mmHg 20%
    16:00 +31°C° 0 mm 3 mps 669 mmHg 21%
    17:00 +28°C° 0 mm 3 mps 669 mmHg 26%
    18:00 +25°C° 0 mm 2 mps 669 mmHg 31%
    19:00 +23°C° 0 mm 2 mps 669 mmHg 35%
    20:00 +21°C° 0 mm 2 mps 669 mmHg 38%
    21:00 +20°C° 0 mm 2 mps 669 mmHg 40%
    22:00 +19°C° 0 mm 2 mps 669 mmHg 42%
    23:00 +19°C° 0 mm 2 mps 669 mmHg 45%

    2 June, Tuesday

    Time Temperature Precipitation Wind Pressure Humidity
    00:00 +18°C° 0 mm 2 mps 669 mmHg 47%
    01:00 +18°C° 0 mm 2 mps 669 mmHg 49%
    02:00 +18°C° 0 mm 3 mps 669 mmHg 50%
    03:00 +18°C° 0 mm 3 mps 669 mmHg 50%
    04:00 +18°C° 0 mm 3 mps 669 mmHg 51%
    05:00 +17°C° 0 mm 3 mps 669 mmHg 52%
    06:00 +17°C° 0 mm 2 mps 670 mmHg 52%
    07:00 +17°C° 0 mm 2 mps 670 mmHg 53%
    08:00 +20°C° 0 mm 3 mps 671 mmHg 44%
    09:00 +25°C° 0 mm 4 mps 671 mmHg 35%
    10:00 +29°C° 0 mm 4 mps 672 mmHg 26%
    11:00 +30°C° 0 mm 4 mps 672 mmHg 23%
    12:00 +31°C° 0 mm 3 mps 671 mmHg 21%
    13:00 +32°C° 0 mm 2 mps 670 mmHg 18%
    14:00 +32°C° 0 mm 2 mps 670 mmHg 18%
    15:00 +31°C° 0 mm 2 mps 669 mmHg 18%
    16:00 +31°C° 0 mm 2 mps 669 mmHg 18%
    17:00 +29°C° 0 mm 2 mps 669 mmHg 22%
    18:00 +26°C° 0 mm 2 mps 669 mmHg 25%
    19:00 +24°C° 0 mm 1 mps 668 mmHg 29%
    20:00 +23°C° 0 mm 1 mps 668 mmHg 30%
    21:00 +21°C° 0 mm 2 mps 668 mmHg 32%
    22:00 +20°C° 0 mm 2 mps 668 mmHg 34%
    23:00 +20°C° 0 mm 1 mps 668 mmHg 35%

    3 June, Wednesday

    Time Temperature Precipitation Wind Pressure Humidity
    00:00 +19°C° 0 mm 1 mps 667 mmHg 36%
    01:00 +19°C° 0 mm 1 mps 667 mmHg 38%
    02:00 +19°C° 0 mm 1 mps 667 mmHg 37%
    03:00 +19°C° 0 mm 1 mps 667 mmHg 37%
    04:00 +19°C° 0 mm 1 mps 668 mmHg 36%
    05:00 +18°C° 0 mm 2 mps 668 mmHg 37%
    06:00 +18°C° 0 mm 2 mps 668 mmHg 39%
    07:00 +18°C° 0 mm 2 mps 669 mmHg 41%
    08:00 +20°C° 0 mm 2 mps 669 mmHg 37%
    09:00 +23°C° 0 mm 2 mps 669 mmHg 34%
    10:00 +26°C° 0 mm 2 mps 670 mmHg 30%
    11:00 +27°C° 0 mm 2 mps 670 mmHg 27%
    12:00 +29°C° 0 mm 2 mps 669 mmHg 24%
    13:00 +30°C° 0 mm 1 mps 669 mmHg 21%
    14:00 +30°C° 0 mm 1 mps 669 mmHg 21%
    15:00 +30°C° 0 mm 1 mps 668 mmHg 22%
    16:00 +29°C° 0 mm 1 mps 668 mmHg 22%
    17:00 +27°C° 0 mm 1 mps 668 mmHg 26%
    18:00 +25°C° 0 mm 1 mps 668 mmHg 29%
    19:00 +22°C° 0 mm 1 mps 668 mmHg 33%
    20:00 +22°C° 0 mm 1 mps 668 mmHg 34%
    21:00 +20°C° 0 mm 2 mps 668 mmHg 36%
    22:00 +19°C° 0 mm 2 mps 668 mmHg 38%
    23:00 +18°C° 0 mm 2 mps 668 mmHg 39%
    Show more